Tracking 29892 objects as of 21-Nov-2024
HD Live streaming from Space Station
objects crossing your sky now

CZ-6A DEB

Track CZ-6A DEB now!
10-day predictions


NORAD ID: 56658
Int'l Code: 2022-151AGJ
Perigee: 835.3 km
Apogee: 1,022.0 km
Inclination: 98.8 °
Period: 103.4 minutes
Semi major axis: 7299 km
RCS: Unknown
Launch date: November 11, 2022
Source: People's Republic of China (PRC)
Launch site: Taiyaun Space Center, China (TSC)

Note: This is SATELLITE DEBRIS
Your satellite tracking list
Your tracking list is empty




NASA's NSSDC Master Catalog

Two Line Element Set (TLE):
1 56658U 22151AGJ 24325.37663681  .00000813  00000-0  62547-3 0  9996
2 56658  98.8028 299.7991 0127859 203.6375 155.8879 13.92034655 80077
Source of the keplerian elements: AFSPC